User: anonymous   Login
Location: Unspecified
(0.0000°N, 0.0000°E)
Time: 02:50:45
(UTC+02:00)
Language:

Cosmos 1758 - Orbit

View from above orbital plane
View from above orbital plane
View from above satellite
View from above satellite

Ground track
Ground track

The orbit data is extracted from the following two-line orbital elements,

1 16791U 86046A   17206.97780063 -.00000043 +00000-0 -50932-5 0  9997
2 16791 082.4712 354.2779 0015517 320.6707 039.3391 15.04449593691234
Epoch (UTC): 25 July 2017 23:28:01
Eccentricity: 0.0015517
inclination: 82.4712°
perigee height: 542 km
apogee height: 564 km
right ascension of ascending node: 354.2779°
argument of perigee: 320.6707°
revolutions per day: 15.04449593
mean anomaly at epoch: 39.3391°
orbit number at epoch: 69123

The dashed part of the orbit path shows where the satellite is in the earth's shadow,  

DLR